Location: Oberwangen
(47.4286°N, 8.9679°E)
Time: 12:09:41
(UTC+00:00)

Cosmos 1953 Rocket - Pass Details

Date: 27 October 2021
Orbit: 604 x 635 km, 82.5° (Epoch: 26 November)

Event Time Altitude Azimuth Distance (km) Brightness Sun altitude
Rises 19:12:43 0° 342° (NNW) 2,941 7.4 -30.5°
Reaches altitude 10° 19:15:09 10° 332° (NNW) 2,025 6.7 -30.9°
Maximum altitude 19:19:06 31° 270° (W) 1,105 5.3 -31.5°
Enters shadow 19:19:22 31° 263° (W) 1,111 5.3 -31.6°
